Flag for Germany Weather past 2 weeks in Achern, Baden-Württemberg, Germany

Now
37 °F

Passing clouds.


Feels Like: 34 °F
Forecast: 35 / 41 °F
Wind: 5 mph from Southwest

Location: Karlsruhe - Baden Wurttemberg

Current Time: Jan 27, 2015 at 6:25:11 PM

Latest Report: Jan 27, 2015 at 5:50 PM


Visibility: N/A

Pressure: 30.24 "Hg

Humidity: 87%

Dew point: 34 °F

Location of AchernLocation

Historic Weather in Achern — Graph

°F

Achern temperature yesterday

Maximum temperature yesterday: 36 °F (at 11:20 AM)
Minimum temperature yesterday: 34 °F (at 4:50 AM)
Average temperature yesterday: 35 °F

Past Weeks' High & Low Weather Summary

 TemperatureHumidityPressure
High59 °F (Jan 13, 1:20 PM)100% (Jan 16, 4:50 PM)30.45 "Hg (Jan 16, 4:50 PM)
Low27 °F (Jan 18, 5:20 AM)25% (Jan 13, 12:20 PM)29.68 "Hg (Jan 15, 4:20 PM)
Average38 °F83%30.02 "Hg
* Reported Jan 12 5:20 PM — Jan 27 5:20 PM, Achern, Weather by CustomWeather, © 2014

Note: Actual official high and low records may vary slightly from our data, if they occured in-between our weather recording intervals... More about our weather records

Advertising

Achern weather history for previous 24 hours

 ConditionsComfort  
Time TempWeatherWind HumidityBarometerVisibility
5:20 PM
Jan 27
39 °FPassing clouds.5 mph81%30.24 "HgN/A
4:50 PM39 °FPartly sunny.6 mph81%30.24 "HgN/A
4:20 PM39 °FPartly sunny.8 mph81%30.21 "HgN/A
3:50 PM39 °FPartly sunny.6 mph81%30.24 "HgN/A
3:20 PM39 °FPartly sunny.6 mph81%30.24 "HgN/A
2:50 PM39 °FPartly sunny.7 mph81%30.24 "HgN/A
2:20 PM39 °FPartly sunny.9 mph81%30.24 "HgN/A
1:50 PM39 °FPartly sunny.9 mph81%30.24 "HgN/A
1:20 PM39 °FBroken clouds.8 mph81%30.24 "Hg6 mi
12:50 PM37 °FScattered clouds.9 mph87%30.24 "Hg6 mi
12:20 PM39 °FScattered clouds.9 mph81%30.27 "Hg6 mi
11:50 AM37 °FScattered clouds.8 mph87%30.27 "Hg6 mi
11:20 AM37 °FPassing clouds.8 mph87%30.27 "Hg6 mi
10:50 AM36 °FPassing clouds.7 mph93%30.24 "Hg6 mi
10:20 AM34 °FScattered clouds.6 mph93%30.24 "Hg5 mi
9:50 AM34 °FBroken clouds.7 mph93%30.24 "Hg6 mi
9:20 AM32 °FScattered clouds.7 mph93%30.24 "Hg5 mi
8:50 AM30 °FScattered clouds.5 mph100%30.24 "Hg5 mi
8:20 AM28 °FPassing clouds.8 mph100%30.24 "Hg5 mi
7:50 AM30 °FPassing clouds.7 mph93%30.24 "Hg6 mi
7:20 AM30 °FPassing clouds.7 mph93%30.21 "Hg4 mi
6:50 AM30 °FPassing clouds.6 mph93%30.21 "Hg4 mi
6:20 AM32 °FPassing clouds.6 mph93%30.21 "Hg5 mi
5:50 AM32 °FPassing clouds.6 mph100%30.21 "Hg6 mi
5:20 AM34 °FPassing clouds.7 mph93%30.21 "Hg5 mi
4:50 AM36 °FPassing clouds.7 mph93%30.18 "Hg4 mi
11:50 PM
Jan 26
36 °FLight rain. Passing clouds.10 mph100%30.15 "Hg4 mi
11:20 PM36 °FLight rain. Passing clouds.9 mph93%30.15 "Hg4 mi
10:50 PM36 °FRain. Passing clouds.12 mph93%30.15 "Hg3 mi
10:20 PM36 °FRain. Passing clouds.12 mph93%30.15 "Hg3 mi
9:50 PM36 °FRain. Passing clouds.13 mph93%30.12 "Hg3 mi
9:20 PM36 °FRain. Passing clouds.15 mph93%30.12 "Hg2 mi
8:50 PM36 °FLight rain. Passing clouds.16 mph93%30.12 "Hg4 mi
8:20 PM34 °FLight rain. Passing clouds.16 mph100%30.12 "Hg4 mi
7:50 PM34 °FLight rain. Mostly cloudy.15 mph93%30.12 "Hg4 mi
7:20 PM34 °FLight rain. Mostly cloudy.16 mph93%30.15 "Hg4 mi
6:50 PM34 °FRain. Mostly cloudy.18 mph93%30.15 "Hg4 mi
6:20 PM34 °FLight rain. Mostly cloudy.17 mph93%30.15 "Hg4 mi
Weather by CustomWeather, © 2014

See weather overviewHow to use our weather pages